TimePST,TemperatureF,Dew PointF,Humidity,Sea Level PressureIn,VisibilityMPH,Wind Direction,Wind SpeedMPH,Gust SpeedMPH,PrecipitationIn,Events,Conditions,WindDirDegrees,DateUTC
12:15 AM,17.6,17.6,100,30.27,10.0,Calm,Calm,-,N/A,,Clear,0,2012-12-09 08:15:00
12:35 AM,17.6,15.8,93,30.27,10.0,ENE,3.5,-,N/A,,Clear,70,2012-12-09 08:35:00
12:55 AM,17.6,15.8,93,30.27,10.0,East,3.5,-,N/A,,Clear,80,2012-12-09 08:55:00
1:15 AM,19.4,17.6,93,30.28,10.0,Calm,Calm,-,N/A,,Clear,0,2012-12-09 09:15:00
1:35 AM,15.8,8.6,73,30.29,10.0,NNE,3.5,-,N/A,,Clear,20,2012-12-09 09:35:00
1:55 AM,17.6,17.6,100,30.30,10.0,Calm,Calm,-,N/A,,Clear,0,2012-12-09 09:55:00
2:15 AM,17.6,15.8,93,30.31,10.0,Calm,Calm,-,N/A,,Partly Cloudy,0,2012-12-09 10:15:00
2:35 AM,17.6,15.8,93,30.31,10.0,Calm,Calm,-,N/A,,Mostly Cloudy,0,2012-12-09 10:35:00
2:55 AM,17.6,15.8,93,30.31,10.0,Calm,Calm,-,N/A,,Partly Cloudy,0,2012-12-09 10:55:00
3:15 AM,17.6,12.2,79,30.31,10.0,Calm,Calm,-,N/A,,Clear,0,2012-12-09 11:15:00
3:35 AM,17.6,14.0,86,30.32,10.0,Calm,Calm,-,N/A,,Clear,0,2012-12-09 11:35:00
4:15 AM,15.8,12.2,86,30.32,10.0,NE,3.5,-,N/A,,Clear,40,2012-12-09 12:15:00
4:35 AM,15.8,12.2,86,30.33,10.0,NE,3.5,-,N/A,,Clear,40,2012-12-09 12:35:00
4:55 AM,15.8,12.2,86,30.33,10.0,NE,3.5,-,N/A,,Clear,40,2012-12-09 12:55:00
5:15 AM,15.8,12.2,86,30.34,10.0,Calm,Calm,-,N/A,,Clear,0,2012-12-09 13:15:00
5:35 AM,15.8,10.4,79,30.34,10.0,NE,3.5,-,N/A,,Mostly Cloudy,50,2012-12-09 13:35:00
5:55 AM,15.8,14.0,93,30.34,10.0,ENE,3.5,-,N/A,,Overcast,70,2012-12-09 13:55:00
6:15 AM,17.6,14.0,86,30.35,10.0,Calm,Calm,-,N/A,,Overcast,0,2012-12-09 14:15:00
6:35 AM,17.6,15.8,93,30.35,10.0,ENE,3.5,-,N/A,,Overcast,70,2012-12-09 14:35:00
6:55 AM,19.4,15.8,86,30.35,10.0,Calm,Calm,-,N/A,,Overcast,0,2012-12-09 14:55:00
7:15 AM,21.2,19.4,93,30.35,10.0,Calm,Calm,-,N/A,,Overcast,0,2012-12-09 15:15:00
7:35 AM,21.2,17.6,86,30.35,10.0,Calm,Calm,-,N/A,,Overcast,0,2012-12-09 15:35:00
7:55 AM,21.2,17.6,86,30.36,10.0,Calm,Calm,-,N/A,,Overcast,0,2012-12-09 15:55:00
8:35 AM,24.8,23.0,93,30.35,10.0,South,5.8,-,N/A,,Overcast,180,2012-12-09 16:35:00
8:55 AM,24.8,19.4,80,30.35,10.0,South,6.9,-,N/A,,Mostly Cloudy,170,2012-12-09 16:55:00
9:15 AM,24.8,21.2,86,30.35,10.0,South,6.9,-,N/A,,Mostly Cloudy,180,2012-12-09 17:15:00
9:35 AM,24.8,21.2,86,30.35,10.0,South,5.8,-,N/A,,Overcast,170,2012-12-09 17:35:00
9:55 AM,26.6,23.0,86,30.36,10.0,South,5.8,-,N/A,,Overcast,170,2012-12-09 17:55:00
10:15 AM,26.6,23.0,86,30.36,10.0,South,5.8,-,N/A,,Mostly Cloudy,180,2012-12-09 18:15:00
10:35 AM,26.6,21.2,80,30.35,10.0,South,6.9,-,N/A,,Overcast,170,2012-12-09 18:35:00
10:55 AM,26.6,21.2,80,30.35,10.0,South,6.9,-,N/A,,Overcast,170,2012-12-09 18:55:00
11:15 AM,26.6,23.0,86,30.34,10.0,South,8.1,-,N/A,,Overcast,190,2012-12-09 19:15:00
11:35 AM,26.6,24.8,93,30.33,3.0,SSE,5.8,-,N/A,,Overcast,160,2012-12-09 19:35:00
11:55 AM,26.6,24.8,93,30.32,3.0,South,5.8,-,N/A,,Overcast,180,2012-12-09 19:55:00
12:15 PM,28.4,24.8,86,30.32,5.0,South,8.1,-,N/A,,Mostly Cloudy,190,2012-12-09 20:15:00
12:35 PM,28.4,24.8,86,30.31,10.0,South,10.4,-,N/A,,Mostly Cloudy,180,2012-12-09 20:35:00
12:55 PM,28.4,24.8,86,30.31,10.0,SSE,6.9,-,N/A,,Mostly Cloudy,160,2012-12-09 20:55:00
1:15 PM,28.4,24.8,86,30.29,5.0,South,5.8,-,N/A,,Overcast,170,2012-12-09 21:15:00
1:35 PM,28.4,24.8,86,30.28,10.0,South,6.9,-,N/A,,Overcast,180,2012-12-09 21:35:00
1:55 PM,28.4,24.8,86,30.27,10.0,South,9.2,-,N/A,,Overcast,180,2012-12-09 21:55:00
2:15 PM,28.4,24.8,86,30.27,10.0,South,9.2,-,N/A,,Overcast,190,2012-12-09 22:15:00
2:35 PM,28.4,24.8,86,30.27,10.0,SSW,6.9,-,N/A,,Overcast,200,2012-12-09 22:35:00
2:55 PM,28.4,26.6,93,30.28,10.0,SSW,6.9,-,N/A,,Overcast,210,2012-12-09 22:55:00
3:15 PM,28.4,26.6,93,30.27,10.0,SSW,6.9,-,N/A,,Overcast,210,2012-12-09 23:15:00
3:35 PM,28.4,26.6,93,30.27,7.0,South,5.8,-,N/A,,Overcast,190,2012-12-09 23:35:00
3:55 PM,28.4,26.6,93,30.25,10.0,South,8.1,-,N/A,,Overcast,190,2012-12-09 23:55:00
4:15 PM,28.4,26.6,93,30.23,8.0,SSW,8.1,-,N/A,,Overcast,200,2012-12-10 00:15:00
4:35 PM,28.4,26.6,93,30.21,5.0,SSW,8.1,-,N/A,,Overcast,210,2012-12-10 00:35:00
4:55 PM,28.4,28.4,100,30.23,4.0,SW,4.6,-,N/A,,Overcast,230,2012-12-10 00:55:00
5:15 PM,28.4,28.4,100,30.22,5.0,Calm,Calm,-,N/A,,Overcast,0,2012-12-10 01:15:00
5:35 PM,30.2,26.6,86,30.23,9.0,WSW,4.6,-,N/A,,Overcast,250,2012-12-10 01:35:00
6:15 PM,30.2,26.6,86,30.22,5.0,SSW,8.1,-,N/A,,Overcast,200,2012-12-10 02:15:00
6:35 PM,30.2,28.4,93,30.21,8.0,South,6.9,-,N/A,,Overcast,190,2012-12-10 02:35:00
6:55 PM,30.2,28.4,93,30.21,5.0,SSW,4.6,-,N/A,,Overcast,200,2012-12-10 02:55:00
7:15 PM,30.2,28.4,93,30.21,3.0,SSW,5.8,-,N/A,,Overcast,210,2012-12-10 03:15:00
7:35 PM,30.2,28.4,93,30.19,2.5,South,4.6,-,N/A,,Overcast,180,2012-12-10 03:35:00
7:55 PM,30.2,26.6,86,30.19,5.0,South,3.5,-,N/A,,Overcast,170,2012-12-10 03:55:00
8:15 PM,30.2,28.4,93,30.18,3.0,SSW,8.1,-,N/A,,Overcast,200,2012-12-10 04:15:00
8:35 PM,30.2,26.6,86,30.17,3.0,South,6.9,-,N/A,,Overcast,180,2012-12-10 04:35:00
8:55 PM,28.4,28.4,100,30.18,2.5,South,4.6,-,N/A,,Overcast,190,2012-12-10 04:55:00
9:15 PM,30.2,28.4,93,30.19,2.5,Calm,Calm,-,N/A,,Overcast,0,2012-12-10 05:15:00
9:35 PM,30.2,28.4,93,30.18,4.0,South,5.8,-,N/A,,Overcast,180,2012-12-10 05:35:00
9:55 PM,30.2,28.4,93,30.17,3.0,SSW,5.8,-,N/A,,Overcast,200,2012-12-10 05:55:00
10:15 PM,30.2,28.4,93,30.17,5.0,SSW,5.8,-,N/A,,Mostly Cloudy,200,2012-12-10 06:15:00
10:35 PM,30.2,28.4,93,30.18,5.0,South,3.5,-,N/A,,Overcast,190,2012-12-10 06:35:00
10:55 PM,28.4,26.6,93,30.19,2.5,Calm,Calm,-,N/A,,Overcast,0,2012-12-10 06:55:00
11:15 PM,28.4,28.4,100,30.17,2.0,Calm,Calm,-,N/A,,Overcast,0,2012-12-10 07:15:00
11:35 PM,30.2,28.4,93,30.16,2.5,South,5.8,-,N/A,,Overcast,190,2012-12-10 07:35:00
11:55 PM,30.2,28.4,93,30.15,2.5,SSW,5.8,-,N/A,,Overcast,210,2012-12-10 07:55:00